Location: Oshawa
(43.9000°N, 78.8670°W)
Time: 23:50:29
(UTC-04:00)

Cosmos 1805 Rocket - Visible Passes

Search period start: 19 August 2017 00:00
Search period end: 29 August 2017 00:00
Orbit: 607 x 629 km, 82.5° (Epoch: 19 August)

Date Brightness Start Highest point End Pass type
(mag) Time Alt. Az. Time Alt. Az. Time Alt. Az.
19 Aug 4.3 03:36:49 10° N 03:41:10 51° ENE 03:42:20 40° SE visible
19 Aug 5.3 05:16:02 10° NW 05:18:32 15° W 05:19:25 14° W visible
20 Aug 3.4 03:53:49 10° N 03:58:17 86° W 03:58:38 75° S visible
21 Aug 5.9 02:34:13 10° NNE 02:37:10 17° ENE 02:37:55 17° E visible
21 Aug 3.9 04:11:02 10° NNW 04:15:00 45° W 04:15:00 45° W visible
22 Aug 5.2 02:50:34 10° NNE 02:54:19 29° ENE 02:54:19 29° ENE visible
22 Aug 4.9 04:28:33 10° NNW 04:31:26 24° WNW 04:31:26 24° WNW visible
23 Aug 4.6 03:07:19 10° N 03:10:48 44° NE 03:10:48 44° NE visible
23 Aug 5.6 04:46:37 10° NW 04:47:54 13° WNW 04:47:54 13° WNW visible
24 Aug 4.5 03:24:20 10° N 03:27:18 42° NNW 03:27:18 42° NNW visible
25 Aug 6.1 02:04:41 10° NNE 02:06:44 17° NE 02:06:44 17° NE visible
25 Aug 5.1 03:41:34 10° NNW 03:43:51 27° NW 03:43:51 27° NW visible
26 Aug 5.8 02:21:04 10° NNE 02:23:19 23° NE 02:23:19 23° NE visible
26 Aug 5.6 03:59:05 10° NNW 04:00:25 17° NW 04:00:25 17° NW visible
27 Aug 5.6 02:37:49 10° N 02:39:55 26° NNE 02:39:55 26° NNE visible
28 Aug 5.6 02:54:50 10° N 02:56:32 23° NNW 02:56:32 23° NNW visible
